Time,TemperatureF,DewpointF,PressureIn,WindDirection,WindDirectionDegrees,WindSpeedMPH,WindSpeedGustMPH,Humidity,HourlyPrecipIn,Conditions,Clouds,dailyrainin,SoftwareType,DateUTC
2013-09-09 00:01:00,50.0,47.5,30.16,SE,135,0.0,0.0,91,0.00,,---,0.00,VWS V14.01,2013-09-09 04:01:00,
2013-09-09 00:02:00,50.0,47.5,30.16,SE,135,0.0,0.0,91,0.00,,---,0.00,VWS V14.01,2013-09-09 04:02:00,
2013-09-09 00:06:00,50.0,47.8,30.16,SE,135,0.0,0.0,92,0.00,,---,0.00,VWS V14.01,2013-09-09 04:06:00,
2013-09-09 00:11:00,49.0,46.8,30.16,SE,135,0.0,0.0,92,0.00,,---,0.00,VWS V14.01,2013-09-09 04:11:00,
2013-09-09 00:16:00,49.0,46.8,30.16,SE,135,0.0,0.0,92,0.00,,---,0.00,VWS V14.01,2013-09-09 04:16:00,
2013-09-09 00:21:00,49.0,46.8,30.16,SE,135,0.0,0.0,92,0.00,,---,0.00,VWS V14.01,2013-09-09 04:21:00,
2013-09-09 00:26:00,49.0,46.8,30.16,SSE,158,0.0,0.0,92,0.00,,---,0.00,VWS V14.01,2013-09-09 04:26:00,
2013-09-09 00:32:00,49.0,46.8,30.16,SE,135,0.0,1.0,92,0.00,,---,0.00,VWS V14.01,2013-09-09 04:32:00,
2013-09-09 00:37:00,49.0,46.8,30.16,ESE,112,0.0,2.0,92,0.00,,---,0.00,VWS V14.01,2013-09-09 04:37:00,
2013-09-09 00:42:00,49.0,46.8,30.16,ESE,112,0.0,1.0,92,0.00,,---,0.00,VWS V14.01,2013-09-09 04:42:00,
2013-09-09 00:47:00,49.0,47.1,30.16,ESE,112,0.0,1.0,93,0.00,,---,0.00,VWS V14.01,2013-09-09 04:47:00,
2013-09-09 00:52:00,48.0,46.1,30.16,ESE,112,0.0,1.0,93,0.00,,---,0.00,VWS V14.01,2013-09-09 04:52:00,
2013-09-09 00:57:00,48.0,46.1,30.16,ESE,112,0.0,1.0,93,0.00,,---,0.00,VWS V14.01,2013-09-09 04:57:00,
2013-09-09 01:02:00,48.0,46.1,30.16,ESE,112,0.0,1.0,93,0.00,,---,0.00,VWS V14.01,2013-09-09 05:02:00,
2013-09-09 01:07:00,48.0,46.1,30.16,ESE,112,0.0,1.0,93,0.00,,---,0.00,VWS V14.01,2013-09-09 05:07:00,
2013-09-09 01:13:00,48.0,46.1,30.16,ESE,112,0.0,1.0,93,0.00,,---,0.00,VWS V14.01,2013-09-09 05:13:00,
2013-09-09 01:18:00,48.0,46.1,30.16,ESE,112,1.0,1.0,93,0.00,,---,0.00,VWS V14.01,2013-09-09 05:18:00,
2013-09-09 01:23:00,47.0,45.1,30.16,SE,135,0.0,0.0,93,0.00,,---,0.00,VWS V14.01,2013-09-09 05:23:00,
2013-09-09 01:28:00,47.0,45.4,30.16,ESE,112,0.0,1.0,94,0.00,,---,0.00,VWS V14.01,2013-09-09 05:28:00,
2013-09-09 01:33:00,47.0,45.4,30.16,SE,135,0.0,1.0,94,0.00,,---,0.00,VWS V14.01,2013-09-09 05:33:00,
2013-09-09 01:38:00,47.0,45.4,30.16,SE,135,0.0,1.0,94,0.00,,---,0.00,VWS V14.01,2013-09-09 05:38:00,
2013-09-09 01:43:00,47.0,45.4,30.16,SE,135,0.0,0.0,94,0.00,,---,0.00,VWS V14.01,2013-09-09 05:43:00,
2013-09-09 01:49:00,47.0,45.4,30.16,SE,135,0.0,1.0,94,0.00,,---,0.00,VWS V14.01,2013-09-09 05:49:00,
2013-09-09 01:54:00,47.0,45.7,30.16,SE,135,0.0,1.0,95,0.00,,---,0.00,VWS V14.01,2013-09-09 05:54:00,
2013-09-09 01:59:00,47.0,45.7,30.16,SE,135,1.0,1.0,95,0.00,,---,0.00,VWS V14.01,2013-09-09 05:59:00,
2013-09-09 02:04:00,47.0,45.7,30.15,ESE,112,1.0,3.0,95,0.00,,---,0.00,VWS V14.01,2013-09-09 06:04:00,
2013-09-09 02:09:00,46.0,44.7,30.15,SE,135,2.0,3.0,95,0.00,,---,0.00,VWS V14.01,2013-09-09 06:09:00,
2013-09-09 02:14:00,46.0,44.7,30.16,ENE,68,1.0,5.0,95,0.00,,---,0.00,VWS V14.01,2013-09-09 06:14:00,
2013-09-09 02:19:00,46.0,44.7,30.15,SE,135,0.0,5.0,95,0.00,,---,0.00,VWS V14.01,2013-09-09 06:19:00,
2013-09-09 02:24:00,46.0,44.9,30.15,SSW,202,0.0,1.0,96,0.00,,---,0.00,VWS V14.01,2013-09-09 06:24:00,
2013-09-09 02:29:00,46.0,44.9,30.16,SW,225,0.0,1.0,96,0.00,,---,0.00,VWS V14.01,2013-09-09 06:29:00,
2013-09-09 02:35:00,46.0,44.9,30.15,SE,135,0.0,1.0,96,0.00,,---,0.00,VWS V14.01,2013-09-09 06:35:00,
2013-09-09 02:40:00,46.0,44.9,30.15,ESE,112,0.0,1.0,96,0.00,,---,0.00,VWS V14.01,2013-09-09 06:40:00,
2013-09-09 02:45:00,46.0,44.9,30.15,ESE,112,0.0,1.0,96,0.00,,---,0.00,VWS V14.01,2013-09-09 06:45:00,
2013-09-09 02:50:00,46.0,44.9,30.15,ENE,68,0.0,1.0,96,0.00,,---,0.00,VWS V14.01,2013-09-09 06:50:00,
2013-09-09 02:55:00,46.0,44.9,30.15,East,90,0.0,1.0,96,0.00,,---,0.00,VWS V14.01,2013-09-09 06:55:00,
2013-09-09 03:00:00,46.0,44.9,30.16,NNE,22,0.0,1.0,96,0.00,,---,0.00,VWS V14.01,2013-09-09 07:00:00,
2013-09-09 03:05:00,46.0,44.9,30.16,NNE,22,0.0,1.0,96,0.00,,---,0.00,VWS V14.01,2013-09-09 07:05:00,
2013-09-09 03:10:00,46.0,44.9,30.16,NNE,22,0.0,1.0,96,0.00,,---,0.00,VWS V14.01,2013-09-09 07:10:00,
2013-09-09 03:15:00,46.0,44.9,30.16,NNE,22,0.0,1.0,96,0.00,,---,0.00,VWS V14.01,2013-09-09 07:15:00,
2013-09-09 03:20:00,46.0,44.9,30.16,NNE,22,0.0,0.0,96,0.00,,---,0.00,VWS V14.01,2013-09-09 07:20:00,
2013-09-09 03:26:00,45.0,43.9,30.15,NNE,22,0.0,0.0,96,0.00,,---,0.00,VWS V14.01,2013-09-09 07:26:00,
2013-09-09 03:31:00,45.0,43.9,30.15,ESE,112,1.0,1.0,96,0.00,,---,0.00,VWS V14.01,2013-09-09 07:31:00,
2013-09-09 03:36:00,45.0,44.2,30.15,SE,135,2.0,2.0,97,0.00,,---,0.00,VWS V14.01,2013-09-09 07:36:00,
2013-09-09 03:41:00,45.0,44.2,30.15,SE,135,1.0,2.0,97,0.00,,---,0.00,VWS V14.01,2013-09-09 07:41:00,
2013-09-09 03:46:00,45.0,44.2,30.15,ESE,112,0.0,2.0,97,0.00,,---,0.00,VWS V14.01,2013-09-09 07:46:00,
2013-09-09 03:51:00,45.0,44.2,30.15,ESE,112,0.0,2.0,97,0.00,,---,0.00,VWS V14.01,2013-09-09 07:51:00,
2013-09-09 03:56:00,45.0,44.2,30.16,ESE,112,0.0,2.0,97,0.00,,---,0.00,VWS V14.01,2013-09-09 07:56:00,
2013-09-09 04:01:00,45.0,44.2,30.16,WSW,248,0.0,0.0,97,0.00,,---,0.00,VWS V14.01,2013-09-09 08:01:00,
2013-09-09 04:06:00,44.0,43.2,30.16,WSW,248,0.0,0.0,97,0.00,,---,0.00,VWS V14.01,2013-09-09 08:06:00,
2013-09-09 04:11:00,44.0,43.2,30.16,WSW,248,0.0,0.0,97,0.00,,---,0.00,VWS V14.01,2013-09-09 08:11:00,
2013-09-09 04:16:00,44.0,43.2,30.16,WSW,248,0.0,0.0,97,0.00,,---,0.00,VWS V14.01,2013-09-09 08:16:00,
2013-09-09 04:21:00,44.0,43.2,30.16,SE,135,0.0,0.0,97,0.00,,---,0.00,VWS V14.01,2013-09-09 08:21:00,
2013-09-09 04:26:00,44.0,43.2,30.16,SE,135,1.0,3.0,97,0.00,,---,0.00,VWS V14.01,2013-09-09 08:26:00,
2013-09-09 04:32:00,44.0,43.2,30.16,SE,135,0.0,3.0,97,0.00,,---,0.00,VWS V14.01,2013-09-09 08:32:00,
2013-09-09 04:37:00,44.0,43.2,30.16,SW,225,0.0,3.0,97,0.00,,---,0.00,VWS V14.01,2013-09-09 08:37:00,
2013-09-09 04:42:00,44.0,43.2,30.16,WSW,248,0.0,0.0,97,0.00,,---,0.00,VWS V14.01,2013-09-09 08:42:00,
2013-09-09 04:47:00,44.0,43.2,30.16,WSW,248,0.0,0.0,97,0.00,,---,0.00,VWS V14.01,2013-09-09 08:47:00,
2013-09-09 04:52:00,44.0,43.2,30.16,South,180,0.0,0.0,97,0.00,,---,0.00,VWS V14.01,2013-09-09 08:52:00,
2013-09-09 04:57:00,44.0,43.2,30.16,SE,135,1.0,2.0,97,0.00,,---,0.00,VWS V14.01,2013-09-09 08:57:00,
2013-09-09 05:02:00,44.0,43.5,30.16,SE,135,1.0,2.0,98,0.00,,---,0.00,VWS V14.01,2013-09-09 09:02:00,
2013-09-09 05:07:00,44.0,43.5,30.16,SE,135,1.0,2.0,98,0.00,,---,0.00,VWS V14.01,2013-09-09 09:07:00,
2013-09-09 05:12:00,45.0,44.5,30.16,SE,135,0.0,2.0,98,0.00,,---,0.00,VWS V14.01,2013-09-09 09:12:00,
2013-09-09 05:17:00,45.0,44.5,30.16,SE,135,0.0,2.0,98,0.00,,---,0.00,VWS V14.01,2013-09-09 09:17:00,
2013-09-09 05:22:00,44.0,43.5,30.17,East,90,1.0,1.0,98,0.00,,---,0.00,VWS V14.01,2013-09-09 09:22:00,
2013-09-09 05:27:00,44.0,43.5,30.17,East,90,1.0,2.0,98,0.00,,---,0.00,VWS V14.01,2013-09-09 09:27:00,
2013-09-09 05:32:00,45.0,44.5,30.17,East,90,1.0,2.0,98,0.00,,---,0.00,VWS V14.01,2013-09-09 09:32:00,
2013-09-09 05:37:00,45.0,44.5,30.17,ENE,68,3.0,3.0,98,0.00,,---,0.00,VWS V14.01,2013-09-09 09:37:00,
2013-09-09 05:43:00,45.0,44.5,30.17,ENE,68,0.0,2.0,98,0.00,,---,0.00,VWS V14.01,2013-09-09 09:43:00,
2013-09-09 05:48:00,45.0,44.5,30.17,NE,45,0.0,2.0,98,0.00,,---,0.00,VWS V14.01,2013-09-09 09:48:00,
2013-09-09 05:53:00,45.0,44.5,30.17,East,90,1.0,3.0,98,0.00,,---,0.00,VWS V14.01,2013-09-09 09:53:00,
2013-09-09 05:58:00,45.0,44.5,30.16,NE,45,1.0,3.0,98,0.00,,---,0.00,VWS V14.01,2013-09-09 09:58:00,
2013-09-09 06:03:00,45.0,44.5,30.16,NNE,22,2.0,2.0,98,0.00,,---,0.00,VWS V14.01,2013-09-09 10:03:00,
2013-09-09 06:08:00,45.0,44.5,30.16,NE,45,0.0,3.0,98,0.00,,---,0.00,VWS V14.01,2013-09-09 10:08:00,
2013-09-09 06:13:00,45.0,44.5,30.17,NE,45,1.0,3.0,98,0.00,,---,0.00,VWS V14.01,2013-09-09 10:13:00,
2013-09-09 06:18:00,45.0,44.5,30.17,East,90,1.0,3.0,98,0.00,,---,0.00,VWS V14.01,2013-09-09 10:18:00,
2013-09-09 06:23:00,45.0,44.5,30.17,East,90,1.0,2.0,98,0.00,,---,0.00,VWS V14.01,2013-09-09 10:23:00,
2013-09-09 06:28:00,45.0,44.5,30.17,ENE,68,0.0,2.0,98,0.00,,---,0.00,VWS V14.01,2013-09-09 10:28:00,
2013-09-09 06:33:00,45.0,44.5,30.17,East,90,1.0,3.0,98,0.00,,---,0.00,VWS V14.01,2013-09-09 10:33:00,
2013-09-09 06:38:00,45.0,44.5,30.17,East,90,1.0,3.0,98,0.00,,---,0.00,VWS V14.01,2013-09-09 10:38:00,
2013-09-09 06:43:00,45.0,44.5,30.17,East,90,0.0,3.0,98,0.00,,---,0.00,VWS V14.01,2013-09-09 10:43:00,
2013-09-09 06:49:00,45.0,44.5,30.17,East,90,1.0,3.0,98,0.00,,---,0.00,VWS V14.01,2013-09-09 10:49:00,
2013-09-09 06:54:00,45.0,44.5,30.17,ENE,68,4.0,4.0,98,0.00,,---,0.00,VWS V14.01,2013-09-09 10:54:00,
2013-09-09 06:59:00,45.0,44.5,30.16,East,90,2.0,5.0,98,0.00,,---,0.00,VWS V14.01,2013-09-09 10:59:00,
2013-09-09 07:04:00,45.0,44.5,30.17,ENE,68,1.0,5.0,98,0.00,,---,0.00,VWS V14.01,2013-09-09 11:04:00,
2013-09-09 07:09:00,45.0,44.5,30.17,ENE,68,3.0,5.0,98,0.00,,---,0.00,VWS V14.01,2013-09-09 11:09:00,
2013-09-09 07:14:00,45.0,44.5,30.17,North,0,1.0,5.0,98,0.00,,---,0.00,VWS V14.01,2013-09-09 11:14:00,
2013-09-09 07:19:00,45.0,44.5,30.17,NNE,22,1.0,5.0,98,0.00,,---,0.00,VWS V14.01,2013-09-09 11:19:00,
2013-09-09 07:24:00,45.0,44.5,30.17,ENE,68,1.0,4.0,98,0.00,,---,0.00,VWS V14.01,2013-09-09 11:24:00,
2013-09-09 07:29:00,46.0,45.5,30.17,East,90,1.0,5.0,98,0.00,,---,0.00,VWS V14.01,2013-09-09 11:29:00,
2013-09-09 07:34:00,46.0,45.5,30.17,ENE,68,1.0,5.0,98,0.00,,---,0.00,VWS V14.01,2013-09-09 11:34:00,
2013-09-09 07:39:00,46.0,45.7,30.17,NE,45,1.0,5.0,99,0.00,,---,0.00,VWS V14.01,2013-09-09 11:39:00,
2013-09-09 07:44:00,46.0,45.5,30.17,NNE,22,1.0,3.0,98,0.00,,---,0.00,VWS V14.01,2013-09-09 11:44:00,
2013-09-09 07:50:00,47.0,46.5,30.17,NE,45,0.0,3.0,98,0.00,,---,0.00,VWS V14.01,2013-09-09 11:50:00,
2013-09-09 07:55:00,47.0,46.5,30.17,ENE,68,0.0,3.0,98,0.00,,---,0.00,VWS V14.01,2013-09-09 11:55:00,
2013-09-09 08:00:00,47.0,46.5,30.17,NE,45,1.0,1.0,98,0.00,,---,0.00,VWS V14.01,2013-09-09 12:00:00,
2013-09-09 08:05:00,47.0,46.5,30.17,NE,45,1.0,3.0,98,0.00,,---,0.00,VWS V14.01,2013-09-09 12:05:00,
2013-09-09 08:10:00,47.0,46.5,30.17,NE,45,1.0,3.0,98,0.00,,---,0.00,VWS V14.01,2013-09-09 12:10:00,
2013-09-09 08:15:00,47.0,46.5,30.17,ENE,68,1.0,3.0,98,0.00,,---,0.00,VWS V14.01,2013-09-09 12:15:00,
2013-09-09 08:20:00,48.0,47.5,30.17,ENE,68,2.0,2.0,98,0.00,,---,0.00,VWS V14.01,2013-09-09 12:20:00,
2013-09-09 08:25:00,48.0,47.5,30.17,ENE,68,3.0,3.0,98,0.00,,---,0.00,VWS V14.01,2013-09-09 12:25:00,
2013-09-09 08:30:00,48.0,47.2,30.17,ENE,68,1.0,4.0,97,0.00,,---,0.00,VWS V14.01,2013-09-09 12:30:00,
2013-09-09 08:35:00,49.0,48.2,30.17,East,90,2.0,4.0,97,0.00,,---,0.00,VWS V14.01,2013-09-09 12:35:00,
2013-09-09 08:40:00,49.0,48.2,30.16,East,90,1.0,5.0,97,0.00,,---,0.00,VWS V14.01,2013-09-09 12:40:00,
2013-09-09 08:45:00,49.0,47.9,30.17,ENE,68,2.0,5.0,96,0.00,,---,0.00,VWS V14.01,2013-09-09 12:45:00,
2013-09-09 08:51:00,49.0,47.3,30.17,NNE,22,0.0,5.0,94,0.00,,---,0.00,VWS V14.01,2013-09-09 12:51:00,
2013-09-09 08:56:00,50.0,48.1,30.17,NNE,22,0.0,5.0,93,0.00,,---,0.00,VWS V14.01,2013-09-09 12:56:00,
2013-09-09 09:01:00,50.0,47.8,30.17,NE,45,0.0,2.0,92,0.00,,---,0.00,VWS V14.01,2013-09-09 13:01:00,
2013-09-09 09:06:00,51.0,48.5,30.16,ESE,112,1.0,5.0,91,0.00,,---,0.00,VWS V14.01,2013-09-09 13:06:00,
2013-09-09 09:11:00,52.0,48.0,30.16,SE,135,1.0,6.0,86,0.00,,---,0.00,VWS V14.01,2013-09-09 13:11:00,
2013-09-09 09:16:00,53.0,47.7,30.17,SW,225,1.0,6.0,82,0.00,,---,0.00,VWS V14.01,2013-09-09 13:16:00,
2013-09-09 09:21:00,54.0,48.6,30.17,East,90,1.0,3.0,82,0.00,,---,0.00,VWS V14.01,2013-09-09 13:21:00,
2013-09-09 09:26:00,54.0,47.6,30.16,SE,135,3.0,5.0,79,0.00,,---,0.00,VWS V14.01,2013-09-09 13:26:00,
2013-09-09 09:31:00,55.0,48.3,30.16,ESE,112,2.0,5.0,78,0.00,,---,0.00,VWS V14.01,2013-09-09 13:31:00,
2013-09-09 09:36:00,56.0,48.5,30.16,SSE,158,3.0,6.0,76,0.00,,---,0.00,VWS V14.01,2013-09-09 13:36:00,
2013-09-09 09:42:00,56.0,48.2,30.16,South,180,4.0,6.0,75,0.00,,---,0.00,VWS V14.01,2013-09-09 13:42:00,
2013-09-09 09:47:00,57.0,48.8,30.16,WNW,292,4.0,8.0,74,0.00,,---,0.00,VWS V14.01,2013-09-09 13:47:00,
2013-09-09 09:52:00,57.0,48.8,30.16,North,0,1.0,8.0,74,0.00,,---,0.00,VWS V14.01,2013-09-09 13:52:00,
2013-09-09 09:57:00,58.0,49.4,30.16,WNW,292,0.0,8.0,73,0.00,,---,0.00,VWS V14.01,2013-09-09 13:57:00,
2013-09-09 10:02:00,58.0,48.3,30.16,South,180,6.0,10.0,70,0.00,,---,0.00,VWS V14.01,2013-09-09 14:02:00,
2013-09-09 10:07:00,59.0,49.2,30.16,ESE,112,4.0,10.0,70,0.00,,---,0.00,VWS V14.01,2013-09-09 14:07:00,
2013-09-09 10:12:00,60.0,50.2,30.16,South,180,5.0,10.0,70,0.00,,---,0.00,VWS V14.01,2013-09-09 14:12:00,
2013-09-09 10:17:00,60.0,49.8,30.16,SW,225,3.0,10.0,69,0.00,,---,0.00,VWS V14.01,2013-09-09 14:17:00,
2013-09-09 10:22:00,60.0,49.8,30.16,SW,225,3.0,8.0,69,0.00,,---,0.00,VWS V14.01,2013-09-09 14:22:00,
2013-09-09 10:27:00,60.0,49.0,30.16,SSW,202,9.0,11.0,67,0.00,,---,0.00,VWS V14.01,2013-09-09 14:27:00,
2013-09-09 10:33:00,61.0,50.0,30.16,SE,135,6.0,11.0,67,0.00,,---,0.00,VWS V14.01,2013-09-09 14:33:00,
2013-09-09 10:38:00,62.0,50.5,30.15,SSE,158,9.0,12.0,66,0.00,,---,0.00,VWS V14.01,2013-09-09 14:38:00,
2013-09-09 10:43:00,63.0,51.5,30.15,East,90,4.0,8.0,66,0.00,,---,0.00,VWS V14.01,2013-09-09 14:43:00,
2013-09-09 10:48:00,63.0,51.5,30.15,SSW,202,2.0,8.0,66,0.00,,---,0.00,VWS V14.01,2013-09-09 14:48:00,
2013-09-09 10:53:00,63.0,51.5,30.15,South,180,6.0,11.0,66,0.00,,---,0.00,VWS V14.01,2013-09-09 14:53:00,
2013-09-09 10:58:00,63.0,51.5,30.15,SE,135,6.0,11.0,66,0.00,,---,0.00,VWS V14.01,2013-09-09 14:58:00,
2013-09-09 11:03:00,64.0,52.4,30.14,SSE,158,7.0,7.0,66,0.00,,---,0.00,VWS V14.01,2013-09-09 15:03:00,
2013-09-09 11:08:00,64.0,52.4,30.15,South,180,1.0,10.0,66,0.00,,---,0.00,VWS V14.01,2013-09-09 15:08:00,
2013-09-09 11:13:00,65.0,53.0,30.14,SSE,158,6.0,10.0,65,0.00,,---,0.00,VWS V14.01,2013-09-09 15:13:00,
2013-09-09 11:18:00,65.0,53.0,30.13,South,180,3.0,10.0,65,0.00,,---,0.00,VWS V14.01,2013-09-09 15:18:00,
2013-09-09 11:24:00,66.0,53.5,30.13,SE,135,8.0,11.0,64,0.00,,---,0.00,VWS V14.01,2013-09-09 15:24:00,
2013-09-09 11:29:00,66.0,53.9,30.13,SSE,158,6.0,11.0,65,0.00,,---,0.00,VWS V14.01,2013-09-09 15:29:00,
2013-09-09 11:34:00,67.0,55.3,30.13,SE,135,3.0,11.0,66,0.00,,---,0.00,VWS V14.01,2013-09-09 15:34:00,
2013-09-09 11:39:00,68.0,56.2,30.13,SE,135,5.0,11.0,66,0.00,,---,0.00,VWS V14.01,2013-09-09 15:39:00,
2013-09-09 11:44:00,68.0,55.4,30.13,South,180,3.0,10.0,64,0.00,,---,0.00,VWS V14.01,2013-09-09 15:44:00,
2013-09-09 11:49:00,68.0,55.4,30.13,SW,225,6.0,11.0,64,0.00,,---,0.00,VWS V14.01,2013-09-09 15:49:00,
2013-09-09 11:54:00,69.0,55.9,30.13,SE,135,5.0,11.0,63,0.00,,---,0.00,VWS V14.01,2013-09-09 15:54:00,
2013-09-09 11:59:00,69.0,55.5,30.14,SSE,158,2.0,11.0,62,0.00,,---,0.00,VWS V14.01,2013-09-09 15:59:00,
2013-09-09 12:04:00,69.0,55.5,30.14,SW,225,5.0,10.0,62,0.00,,---,0.00,VWS V14.01,2013-09-09 16:04:00,
2013-09-09 12:09:00,69.0,55.9,30.13,SE,135,10.0,11.0,63,0.00,,---,0.00,VWS V14.01,2013-09-09 16:09:00,
2013-09-09 12:14:00,69.0,56.3,30.13,WSW,248,5.0,11.0,64,0.00,,---,0.00,VWS V14.01,2013-09-09 16:14:00,
2013-09-09 12:19:00,70.0,57.7,30.13,SSE,158,1.0,2.0,65,0.00,,---,0.00,VWS V14.01,2013-09-09 16:19:00,
2013-09-09 12:25:00,70.0,57.3,30.13,South,180,8.0,11.0,64,0.00,,---,0.00,VWS V14.01,2013-09-09 16:25:00,
2013-09-09 12:30:00,70.0,57.3,30.13,South,180,6.0,11.0,64,0.00,,---,0.00,VWS V14.01,2013-09-09 16:30:00,
2013-09-09 12:35:00,70.0,57.3,30.13,South,180,8.0,11.0,64,0.00,,---,0.00,VWS V14.01,2013-09-09 16:35:00,
2013-09-09 12:40:00,70.0,57.7,30.12,South,180,11.0,11.0,65,0.00,,---,0.00,VWS V14.01,2013-09-09 16:40:00,
2013-09-09 12:45:00,71.0,58.7,30.12,South,180,4.0,12.0,65,0.00,,---,0.00,VWS V14.01,2013-09-09 16:45:00,
2013-09-09 12:50:00,72.0,59.6,30.13,South,180,6.0,12.0,65,0.00,,---,0.00,VWS V14.01,2013-09-09 16:50:00,
2013-09-09 12:55:00,71.0,57.3,30.13,SSE,158,6.0,12.0,62,0.00,,---,0.00,VWS V14.01,2013-09-09 16:55:00,
2013-09-09 13:00:00,72.0,58.7,30.13,South,180,3.0,7.0,63,0.00,,---,0.00,VWS V14.01,2013-09-09 17:00:00,
2013-09-09 13:05:00,72.0,59.2,30.13,SSW,202,6.0,11.0,64,0.00,,---,0.00,VWS V14.01,2013-09-09 17:05:00,
2013-09-09 13:10:00,73.0,59.2,30.12,South,180,6.0,11.0,62,0.00,,---,0.00,VWS V14.01,2013-09-09 17:10:00,
2013-09-09 13:15:00,74.0,61.1,30.12,WSW,248,6.0,11.0,64,0.00,,---,0.00,VWS V14.01,2013-09-09 17:15:00,
2013-09-09 13:20:00,75.0,61.1,30.12,SW,225,6.0,10.0,62,0.00,,---,0.00,VWS V14.01,2013-09-09 17:20:00,
2013-09-09 13:25:00,75.0,60.7,30.12,WSW,248,6.0,11.0,61,0.00,,---,0.00,VWS V14.01,2013-09-09 17:25:00,
2013-09-09 13:31:00,74.0,59.7,30.12,South,180,8.0,11.0,61,0.00,,---,0.00,VWS V14.01,2013-09-09 17:31:00,
2013-09-09 13:36:00,75.0,60.7,30.12,WSW,248,13.0,15.0,61,0.00,,---,0.00,VWS V14.01,2013-09-09 17:36:00,
2013-09-09 13:41:00,75.0,60.2,30.12,South,180,6.0,12.0,60,0.00,,---,0.00,VWS V14.01,2013-09-09 17:41:00,
2013-09-09 13:46:00,75.0,59.7,30.12,South,180,7.0,17.0,59,0.00,,---,0.00,VWS V14.01,2013-09-09 17:46:00,
2013-09-09 13:51:00,74.0,59.2,30.12,West,270,6.0,17.0,60,0.00,,---,0.00,VWS V14.01,2013-09-09 17:51:00,
2013-09-09 13:56:00,74.0,60.2,30.11,SW,225,8.0,17.0,62,0.00,,---,0.00,VWS V14.01,2013-09-09 17:56:00,
2013-09-09 14:01:00,74.0,61.1,30.11,West,270,6.0,10.0,64,0.00,,---,0.00,VWS V14.01,2013-09-09 18:01:00,
2013-09-09 14:06:00,74.0,61.5,30.10,West,270,5.0,10.0,65,0.00,,---,0.00,VWS V14.01,2013-09-09 18:06:00,
2013-09-09 14:11:00,74.0,61.1,30.11,South,180,7.0,11.0,64,0.00,,---,0.00,VWS V14.01,2013-09-09 18:11:00,
2013-09-09 14:16:00,74.0,61.5,30.11,WSW,248,7.0,11.0,65,0.00,,---,0.00,VWS V14.01,2013-09-09 18:16:00,
2013-09-09 14:21:00,74.0,61.1,30.10,SW,225,6.0,11.0,64,0.00,,---,0.00,VWS V14.01,2013-09-09 18:21:00,
2013-09-09 14:27:00,74.0,61.5,30.10,SW,225,6.0,11.0,65,0.00,,---,0.00,VWS V14.01,2013-09-09 18:27:00,
2013-09-09 14:32:00,74.0,61.1,30.11,WSW,248,11.0,11.0,64,0.00,,---,0.00,VWS V14.01,2013-09-09 18:32:00,
2013-09-09 14:37:00,74.0,60.6,30.10,SW,225,5.0,11.0,63,0.00,,---,0.00,VWS V14.01,2013-09-09 18:37:00,
2013-09-09 14:42:00,74.0,60.6,30.10,SSW,202,4.0,8.0,63,0.00,,---,0.00,VWS V14.01,2013-09-09 18:42:00,
2013-09-09 14:47:00,75.0,62.5,30.10,SSE,158,4.0,8.0,65,0.00,,---,0.00,VWS V14.01,2013-09-09 18:47:00,
2013-09-09 14:52:00,74.0,60.6,30.10,SE,135,7.0,9.0,63,0.00,,---,0.00,VWS V14.01,2013-09-09 18:52:00,
2013-09-09 14:57:00,74.0,61.1,30.09,SE,135,10.0,13.0,64,0.00,,---,0.00,VWS V14.01,2013-09-09 18:57:00,
2013-09-09 15:02:00,75.0,61.6,30.09,SSE,158,6.0,12.0,63,0.00,,---,0.00,VWS V14.01,2013-09-09 19:02:00,
2013-09-09 15:07:00,75.0,62.0,30.09,South,180,6.0,12.0,64,0.00,,---,0.00,VWS V14.01,2013-09-09 19:07:00,
2013-09-09 15:12:00,75.0,62.0,30.09,WSW,248,3.0,12.0,64,0.00,,---,0.00,VWS V14.01,2013-09-09 19:12:00,
2013-09-09 15:17:00,75.0,61.6,30.09,SE,135,5.0,12.0,63,0.00,,---,0.00,VWS V14.01,2013-09-09 19:17:00,
2013-09-09 15:22:00,74.0,61.1,30.09,SSW,202,5.0,6.0,64,0.00,,---,0.00,VWS V14.01,2013-09-09 19:22:00,
2013-09-09 15:28:00,75.0,62.5,30.09,SSW,202,6.0,7.0,65,0.00,,---,0.00,VWS V14.01,2013-09-09 19:28:00,
2013-09-09 15:33:00,74.0,61.5,30.09,SW,225,5.0,7.0,65,0.00,,---,0.00,VWS V14.01,2013-09-09 19:33:00,
2013-09-09 15:38:00,74.0,61.9,30.08,South,180,4.0,10.0,66,0.00,,---,0.00,VWS V14.01,2013-09-09 19:38:00,
2013-09-09 15:43:00,74.0,62.4,30.09,SW,225,5.0,7.0,67,0.00,,---,0.00,VWS V14.01,2013-09-09 19:43:00,
2013-09-09 15:48:00,74.0,62.4,30.08,South,180,7.0,10.0,67,0.00,,---,0.00,VWS V14.01,2013-09-09 19:48:00,
2013-09-09 15:53:00,74.0,62.8,30.09,SSW,202,4.0,10.0,68,0.00,,---,0.00,VWS V14.01,2013-09-09 19:53:00,
2013-09-09 15:58:00,74.0,63.2,30.09,SSW,202,3.0,10.0,69,0.00,,---,0.00,VWS V14.01,2013-09-09 19:58:00,
2013-09-09 16:03:00,73.0,62.7,30.09,South,180,3.0,6.0,70,0.00,,---,0.00,VWS V14.01,2013-09-09 20:03:00,
2013-09-09 16:08:00,73.0,63.0,30.09,SSW,202,3.0,6.0,71,0.00,,---,0.00,VWS V14.01,2013-09-09 20:08:00,
2013-09-09 16:13:00,73.0,63.0,30.08,SW,225,3.0,6.0,71,0.00,,---,0.00,VWS V14.01,2013-09-09 20:13:00,
2013-09-09 16:18:00,73.0,63.0,30.08,SSW,202,5.0,8.0,71,0.00,,---,0.00,VWS V14.01,2013-09-09 20:18:00,
2013-09-09 16:23:00,73.0,63.0,30.07,South,180,5.0,7.0,71,0.00,,---,0.00,VWS V14.01,2013-09-09 20:23:00,
2013-09-09 16:29:00,73.0,63.0,30.07,SSW,202,4.0,8.0,71,0.00,,---,0.00,VWS V14.01,2013-09-09 20:29:00,
2013-09-09 16:34:00,73.0,63.0,30.07,SSW,202,4.0,8.0,71,0.00,,---,0.00,VWS V14.01,2013-09-09 20:34:00,
2013-09-09 16:39:00,73.0,63.0,30.08,SSE,158,6.0,8.0,71,0.00,,---,0.00,VWS V14.01,2013-09-09 20:39:00,
2013-09-09 16:44:00,73.0,63.0,30.07,SSW,202,6.0,8.0,71,0.00,,---,0.00,VWS V14.01,2013-09-09 20:44:00,
2013-09-09 16:49:00,73.0,63.0,30.07,SSE,158,12.0,12.0,71,0.00,,---,0.00,VWS V14.01,2013-09-09 20:49:00,
2013-09-09 16:54:00,72.0,62.5,30.07,South,180,9.0,13.0,72,0.00,,---,0.00,VWS V14.01,2013-09-09 20:54:00,
2013-09-09 16:59:00,72.0,62.9,30.07,SW,225,7.0,13.0,73,0.00,,---,0.00,VWS V14.01,2013-09-09 20:59:00,
2013-09-09 17:04:00,71.0,62.3,30.08,SW,225,5.0,14.0,74,0.00,,---,0.00,VWS V14.01,2013-09-09 21:04:00,
2013-09-09 17:09:00,71.0,62.7,30.08,ESE,112,9.0,14.0,75,0.00,,---,0.00,VWS V14.01,2013-09-09 21:09:00,
2013-09-09 17:15:00,71.0,62.7,30.08,SW,225,9.0,14.0,75,0.00,,---,0.00,VWS V14.01,2013-09-09 21:15:00,
2013-09-09 17:20:00,70.0,62.1,30.08,SSW,202,5.0,7.0,76,0.00,,---,0.00,VWS V14.01,2013-09-09 21:20:00,
2013-09-09 17:25:00,70.0,62.5,30.08,SSW,202,11.0,11.0,77,0.00,,---,0.00,VWS V14.01,2013-09-09 21:25:00,
2013-09-09 17:30:00,70.0,62.5,30.08,SSE,158,5.0,13.0,77,0.00,,---,0.00,VWS V14.01,2013-09-09 21:30:00,
2013-09-09 17:35:00,70.0,62.5,30.08,SW,225,10.0,13.0,77,0.00,,---,0.00,VWS V14.01,2013-09-09 21:35:00,
2013-09-09 17:40:00,69.0,61.5,30.08,SSW,202,6.0,12.0,77,0.00,,---,0.00,VWS V14.01,2013-09-09 21:40:00,
2013-09-09 17:45:00,69.0,61.5,30.08,South,180,11.0,13.0,77,0.00,,---,0.00,VWS V14.01,2013-09-09 21:45:00,
2013-09-09 17:50:00,69.0,61.5,30.08,SSW,202,8.0,16.0,77,0.00,,---,0.00,VWS V14.01,2013-09-09 21:50:00,
2013-09-09 17:55:00,69.0,61.9,30.08,SW,225,5.0,16.0,78,0.00,,---,0.00,VWS V14.01,2013-09-09 21:55:00,
2013-09-09 18:01:00,68.0,61.2,30.08,SSE,158,4.0,5.0,79,0.00,,---,0.00,VWS V14.01,2013-09-09 22:01:00,
2013-09-09 18:06:00,68.0,62.0,30.09,SW,225,5.0,8.0,81,0.00,,---,0.00,VWS V14.01,2013-09-09 22:06:00,
2013-09-09 18:11:00,68.0,62.3,30.09,South,180,3.0,8.0,82,0.00,,---,0.00,VWS V14.01,2013-09-09 22:11:00,
2013-09-09 18:16:00,67.0,61.7,30.09,SE,135,3.0,8.0,83,0.00,,---,0.00,VWS V14.01,2013-09-09 22:16:00,
2013-09-09 18:21:00,67.0,62.0,30.09,SSE,158,1.0,2.0,84,0.00,,---,0.00,VWS V14.01,2013-09-09 22:21:00,
2013-09-09 18:26:00,67.0,62.3,30.09,East,90,1.0,3.0,85,0.00,,---,0.00,VWS V14.01,2013-09-09 22:26:00,
2013-09-09 18:31:00,67.0,62.3,30.08,SSE,158,2.0,5.0,85,0.00,,---,0.00,VWS V14.01,2013-09-09 22:31:00,
2013-09-09 18:36:00,67.0,62.7,30.08,SSE,158,1.0,6.0,86,0.00,,---,0.00,VWS V14.01,2013-09-09 22:36:00,
2013-09-09 18:41:00,67.0,63.0,30.09,SSE,158,1.0,3.0,87,0.00,,---,0.00,VWS V14.01,2013-09-09 22:41:00,
2013-09-09 18:46:00,66.0,62.0,30.08,SSE,158,3.0,6.0,87,0.00,,---,0.00,VWS V14.01,2013-09-09 22:46:00,
2013-09-09 18:52:00,66.0,62.3,30.09,SW,225,1.0,6.0,88,0.00,,---,0.00,VWS V14.01,2013-09-09 22:52:00,
2013-09-09 18:57:00,66.0,62.7,30.09,SSW,202,1.0,6.0,89,0.02,,---,0.02,VWS V14.01,2013-09-09 22:57:00,
2013-09-09 19:02:00,66.0,62.7,30.09,East,90,3.0,3.0,89,0.02,,---,0.02,VWS V14.01,2013-09-09 23:02:00,
2013-09-09 19:07:00,66.0,63.0,30.08,SE,135,1.0,3.0,90,0.03,,---,0.03,VWS V14.01,2013-09-09 23:07:00,
2013-09-09 19:12:00,66.0,63.3,30.08,East,90,3.0,3.0,91,0.03,,---,0.03,VWS V14.01,2013-09-09 23:12:00,
2013-09-09 19:17:00,66.0,63.3,30.08,ENE,68,1.0,4.0,91,0.03,,---,0.03,VWS V14.01,2013-09-09 23:17:00,
2013-09-09 19:22:00,66.0,63.3,30.08,SE,135,0.0,2.0,91,0.03,,---,0.03,VWS V14.01,2013-09-09 23:22:00,
2013-09-09 19:27:00,66.0,63.6,30.08,SE,135,1.0,2.0,92,0.03,,---,0.03,VWS V14.01,2013-09-09 23:27:00,
2013-09-09 19:32:00,66.0,63.6,30.09,SSE,158,1.0,4.0,92,0.03,,---,0.03,VWS V14.01,2013-09-09 23:32:00,
2013-09-09 19:38:00,65.0,62.6,30.09,SE,135,1.0,4.0,92,0.03,,---,0.03,VWS V14.01,2013-09-09 23:38:00,
2013-09-09 19:43:00,65.0,62.6,30.08,South,180,3.0,6.0,92,0.03,,---,0.03,VWS V14.01,2013-09-09 23:43:00,
2013-09-09 19:48:00,65.0,62.9,30.08,SE,135,2.0,6.0,93,0.03,,---,0.03,VWS V14.01,2013-09-09 23:48:00,
2013-09-09 19:53:00,65.0,62.9,30.09,SE,135,1.0,6.0,93,0.03,,---,0.03,VWS V14.01,2013-09-09 23:53:00,
2013-09-09 19:58:00,65.0,62.9,30.09,ESE,112,0.0,6.0,93,0.03,,---,0.03,VWS V14.01,2013-09-09 23:58:00,
2013-09-09 20:03:00,65.0,62.9,30.09,NNE,22,1.0,1.0,93,0.01,,---,0.03,VWS V14.01,2013-09-10 00:03:00,
2013-09-09 20:08:00,65.0,62.9,30.09,SE,135,0.0,3.0,93,0.01,,---,0.03,VWS V14.01,2013-09-10 00:08:00,
2013-09-09 20:13:00,64.0,61.9,30.09,NE,45,1.0,3.0,93,0.01,,---,0.03,VWS V14.01,2013-09-10 00:13:00,
2013-09-09 20:18:00,64.0,62.2,30.09,NE,45,0.0,3.0,94,0.01,,---,0.03,VWS V14.01,2013-09-10 00:18:00,
2013-09-09 20:23:00,64.0,62.2,30.10,ESE,112,1.0,1.0,94,0.01,,---,0.04,VWS V14.01,2013-09-10 00:23:00,
2013-09-09 20:28:00,64.0,62.2,30.10,ESE,112,1.0,5.0,94,0.01,,---,0.04,VWS V14.01,2013-09-10 00:28:00,
2013-09-09 20:34:00,64.0,62.2,30.09,NNE,22,0.0,5.0,94,0.01,,---,0.04,VWS V14.01,2013-09-10 00:34:00,
2013-09-09 20:39:00,64.0,62.2,30.09,SE,135,5.0,5.0,94,0.01,,---,0.04,VWS V14.01,2013-09-10 00:39:00,
2013-09-09 20:44:00,64.0,62.2,30.09,NNW,338,1.0,5.0,94,0.01,,---,0.04,VWS V14.01,2013-09-10 00:44:00,
2013-09-09 20:49:00,64.0,62.2,30.09,ESE,112,2.0,7.0,94,0.01,,---,0.04,VWS V14.01,2013-09-10 00:49:00,
2013-09-09 20:54:00,63.0,61.2,30.09,SSW,202,1.0,7.0,94,0.01,,---,0.04,VWS V14.01,2013-09-10 00:54:00,
2013-09-09 20:59:00,63.0,61.2,30.09,SSE,158,2.0,7.0,94,0.01,,---,0.04,VWS V14.01,2013-09-10 00:59:00,
2013-09-09 21:04:00,63.0,61.5,30.08,SE,135,1.0,4.0,95,0.01,,---,0.04,VWS V14.01,2013-09-10 01:04:00,
2013-09-09 21:09:00,63.0,61.5,30.09,SSE,158,0.0,4.0,95,0.01,,---,0.04,VWS V14.01,2013-09-10 01:09:00,
2013-09-09 21:14:00,63.0,61.5,30.09,WNW,292,0.0,4.0,95,0.01,,---,0.04,VWS V14.01,2013-09-10 01:14:00,
2013-09-09 21:19:00,63.0,61.5,30.09,SSW,202,1.0,1.0,95,0.01,,---,0.04,VWS V14.01,2013-09-10 01:19:00,
2013-09-09 21:25:00,63.0,61.5,30.10,WSW,248,1.0,5.0,95,0.01,,---,0.04,VWS V14.01,2013-09-10 01:25:00,
2013-09-09 21:30:00,63.0,61.5,30.10,NE,45,1.0,5.0,95,0.01,,---,0.04,VWS V14.01,2013-09-10 01:30:00,
2013-09-09 21:35:00,63.0,61.5,30.10,NNE,22,0.0,5.0,95,0.01,,---,0.04,VWS V14.01,2013-09-10 01:35:00,
2013-09-09 21:40:00,63.0,61.5,30.09,NE,45,0.0,0.0,95,0.00,,---,0.04,VWS V14.01,2013-09-10 01:40:00,
2013-09-09 21:45:00,63.0,61.5,30.09,SW,225,1.0,3.0,95,0.00,,---,0.04,VWS V14.01,2013-09-10 01:45:00,
2013-09-09 21:50:00,63.0,61.5,30.10,SSE,158,2.0,4.0,95,0.00,,---,0.04,VWS V14.01,2013-09-10 01:50:00,
2013-09-09 21:55:00,63.0,61.5,30.10,ESE,112,0.0,4.0,95,0.00,,---,0.04,VWS V14.01,2013-09-10 01:55:00,
2013-09-09 22:00:00,63.0,61.5,30.09,North,0,0.0,1.0,95,0.00,,---,0.04,VWS V14.01,2013-09-10 02:00:00,
2013-09-09 22:06:00,63.0,61.5,30.10,NE,45,1.0,2.0,95,0.00,,---,0.04,VWS V14.01,2013-09-10 02:06:00,
2013-09-09 22:11:00,63.0,61.5,30.10,NE,45,0.0,2.0,95,0.00,,---,0.04,VWS V14.01,2013-09-10 02:11:00,
2013-09-09 22:16:00,63.0,61.5,30.10,SSE,158,3.0,5.0,95,0.00,,---,0.04,VWS V14.01,2013-09-10 02:16:00,
2013-09-09 22:21:00,63.0,61.5,30.09,SE,135,1.0,3.0,95,0.00,,---,0.04,VWS V14.01,2013-09-10 02:21:00,
2013-09-09 22:26:00,63.0,61.5,30.10,ESE,112,1.0,3.0,95,0.00,,---,0.04,VWS V14.01,2013-09-10 02:26:00,
2013-09-09 22:31:00,63.0,61.5,30.10,South,180,2.0,3.0,95,0.00,,---,0.04,VWS V14.01,2013-09-10 02:31:00,
2013-09-09 22:36:00,63.0,61.5,30.10,NNW,338,1.0,3.0,95,0.00,,---,0.04,VWS V14.01,2013-09-10 02:36:00,
2013-09-09 22:41:00,63.0,61.5,30.10,SSW,202,1.0,5.0,95,0.00,,---,0.04,VWS V14.01,2013-09-10 02:41:00,
2013-09-09 22:46:00,63.0,61.5,30.09,North,0,1.0,5.0,95,0.00,,---,0.04,VWS V14.01,2013-09-10 02:46:00,
2013-09-09 22:52:00,62.0,60.6,30.10,North,0,2.0,5.0,95,0.00,,---,0.04,VWS V14.01,2013-09-10 02:52:00,
2013-09-09 22:57:00,62.0,60.8,30.10,ENE,68,1.0,5.0,96,0.00,,---,0.04,VWS V14.01,2013-09-10 02:57:00,
2013-09-09 23:02:00,62.0,60.8,30.09,ENE,68,1.0,3.0,96,0.00,,---,0.04,VWS V14.01,2013-09-10 03:02:00,
2013-09-09 23:07:00,62.0,60.8,30.09,ESE,112,0.0,3.0,96,0.00,,---,0.04,VWS V14.01,2013-09-10 03:07:00,
2013-09-09 23:12:00,63.0,61.8,30.08,SSW,202,3.0,6.0,96,0.00,,---,0.04,VWS V14.01,2013-09-10 03:12:00,
2013-09-09 23:17:00,63.0,61.8,30.09,NNW,338,1.0,8.0,96,0.00,,---,0.04,VWS V14.01,2013-09-10 03:17:00,
2013-09-09 23:22:00,63.0,61.8,30.09,North,0,2.0,5.0,96,0.00,,---,0.04,VWS V14.01,2013-09-10 03:22:00,
2013-09-09 23:28:00,63.0,61.8,30.09,NNW,338,1.0,5.0,96,0.00,,---,0.04,VWS V14.01,2013-09-10 03:28:00,
2013-09-09 23:33:00,63.0,61.8,30.09,North,0,1.0,5.0,96,0.00,,---,0.04,VWS V14.01,2013-09-10 03:33:00,
2013-09-09 23:38:00,62.0,60.8,30.09,East,90,1.0,5.0,96,0.00,,---,0.04,VWS V14.01,2013-09-10 03:38:00,
2013-09-09 23:43:00,62.0,60.8,30.09,North,0,0.0,3.0,96,0.00,,---,0.04,VWS V14.01,2013-09-10 03:43:00,
2013-09-09 23:48:00,62.0,60.8,30.09,SSE,158,6.0,7.0,96,0.00,,---,0.04,VWS V14.01,2013-09-10 03:48:00,
2013-09-09 23:53:00,62.0,60.8,30.08,SE,135,1.0,7.0,96,0.00,,---,0.04,VWS V14.01,2013-09-10 03:53:00,
2013-09-09 23:58:00,63.0,61.8,30.08,ESE,112,4.0,7.0,96,0.00,,---,0.04,VWS V14.01,2013-09-10 03:58:00,